Location: Asis
(14.1331°N, 120.9056°E)
Time: 22:30:20
(UTC+00:00)

Cosmos 1862 Rocket - Visible Passes

Search period start: 18 April 2026 00:00
Search period end: 28 April 2026 00:00
Orbit: 598 x 625 km, 82.5° (Epoch: 18 April)

Date Brightness Start Highest point End Pass type
(mag) Time Alt. Az. Time Alt. Az. Time Alt. Az.
18 Apr 3.5 10:39:00 10° N 10:43:20 75° E 10:47:38 10° S visible
19 Apr 4.5 10:54:02 10° NNW 10:58:13 49° W 11:02:23 10° SSW visible
20 Apr 6.0 11:09:36 10° NW 11:13:04 24° W 11:16:31 10° SW visible
21 Apr 6.9 11:26:28 10° WNW 11:27:53 11° W 11:29:17 10° WSW visible
24 Apr 5.8 10:31:29 10° NNW 10:35:14 29° W 10:38:58 10° SSW visible
24 Apr 7.0 21:11:11 10° ESE 21:13:01 12° E 21:14:52 10° ENE visible
25 Apr 6.7 10:47:42 10° WNW 10:50:03 14° W 10:52:24 10° SW visible
